Weather History for K20V - October, 2012

Change the Weather History Date:

Tuesday, October 2, 2012

  Actual Average Record
Temperature  
Mean Temperature 50 °F -  
Max Temperature 73 °F - - ()
Min Temperature 28 °F - - ()
Degree Days  
Heating Degree Days 14    
Moisture  
Dew Point 21 °F    
Average Humidity 42    
Maximum Humidity 75    
Minimum Humidity 9    
Precipitation  
Precipitation 0.00 in - - ()
Sea Level Pressure  
Sea Level Pressure 30.23 in    
Wind  
Wind Speed 1 mph (WNW)    
Max Wind Speed 12 mph    
Max Gust Speed 21 mph    
Visibility 10 miles    
Events      
Averages and records for this station are not official NWS values.
T = Trace of Precipitation, MM = Missing Value Source: NWS Daily Summary

Daily Weather History Graph

Daily Weather History Graph

Search for Another Location

Airport or City:

Trip Planner

Search our weather history database for the weather conditions in past years. The results will help you decide how hot, cold, wet, or windy it might be!

Date:

Astronomy

Oct. 02, 2012 Rise Set
Actual Time 7:03 AM MDT 6:45 PM MDT
Civil Twilight 6:36 AM MDT 7:12 PM MDT
Nautical Twilight 6:04 AM MDT 7:43 PM MDT
Astronomical Twilight 5:33 AM MDT 8:15 PM MDT
Moon 7:59 PM MDT 9:33 AM MDT
Length of Visible Light 12h 35m
Length of Day
11h 41m
Waning Gibbous, 94% of the Moon is Illuminated
Oct 2
Waning Gibbous
Oct 8
Last Quarter
Oct 15
New
Oct 21
First Quarter
Oct 29
Full

Hourly Weather History & Observations

Time (MDT) Temp. Windchill Dew Point Humidity Pressure Visibility Wind Dir Wind Speed Gust Speed Precip Events Conditions
12:15 AM 37.4 °F - 28.4 °F 70% 30.32 in 10.0 mi Calm Calm - N/A   Clear
12:34 AM 35.6 °F - 26.6 °F 70% 30.32 in 10.0 mi Calm Calm - N/A   Clear
12:55 AM 35.6 °F - 26.6 °F 70% 30.32 in 10.0 mi Calm Calm - N/A   Clear
1:15 AM 35.6 °F - 24.8 °F 65% 30.32 in 10.0 mi Calm Calm - N/A   Clear
1:32 AM 35.6 °F - 26.6 °F 70% 30.32 in 10.0 mi Calm Calm - N/A   Clear
1:55 AM 33.8 °F - 26.6 °F 75% 30.32 in 10.0 mi Calm Calm - N/A   Clear
2:06 AM 33.8 °F - 24.8 °F 70% 30.32 in 10.0 mi Calm Calm - N/A   Clear
2:34 AM 32.0 °F - 23.0 °F 69% 30.31 in 10.0 mi Calm Calm - N/A   Clear
2:55 AM 32.0 °F - 21.2 °F 64% 30.31 in 10.0 mi Calm Calm - N/A   Clear
3:15 AM 33.8 °F - 26.6 °F 75% 30.32 in 10.0 mi Calm Calm - N/A   Clear
3:35 AM 32.0 °F - 24.8 °F 75% 30.32 in 10.0 mi Calm Calm - N/A   Clear
3:55 AM 32.0 °F - 23.0 °F 69% 30.32 in 10.0 mi Calm Calm - N/A   Clear
4:35 AM 30.2 °F - 23.0 °F 75% 30.32 in 10.0 mi Calm Calm - N/A   Clear
5:15 AM 30.2 °F - 21.2 °F 69% 30.32 in 10.0 mi Calm Calm - N/A   Clear
5:35 AM 30.2 °F - 23.0 °F 75% 30.32 in 10.0 mi Calm Calm - N/A   Clear
5:54 AM 30.2 °F - 23.0 °F 75% 30.32 in 10.0 mi Calm Calm - N/A   Clear
6:15 AM 28.4 °F - 21.2 °F 74% 30.32 in 10.0 mi Calm Calm - N/A   Clear
6:35 AM 30.2 °F - 23.0 °F 75% 30.32 in 10.0 mi Calm Calm - N/A   Clear
6:53 AM 28.4 °F - 21.2 °F 74% 30.32 in 10.0 mi Calm Calm - N/A   Clear
7:15 AM 28.4 °F - 21.2 °F 74% 30.32 in 10.0 mi Calm Calm - N/A   Clear
7:25 AM 28.4 °F - 21.2 °F 74% 30.33 in 10.0 mi Calm Calm - N/A   Clear
7:55 AM 32.0 °F - 23.0 °F 69% 30.33 in 10.0 mi Calm Calm - N/A   Clear
8:14 AM 32.0 °F - 23.0 °F 69% 30.33 in 10.0 mi Calm Calm - N/A   Clear
8:33 AM 33.8 °F - 23.0 °F 65% 30.33 in 10.0 mi Calm Calm - N/A   Clear
8:55 AM 37.4 °F - 26.6 °F 65% 30.33 in 10.0 mi Calm Calm - N/A   Clear
9:15 AM 39.2 °F - 24.8 °F 56% 30.32 in 10.0 mi Calm Calm - N/A   Clear
9:35 AM 41.0 °F - 26.6 °F 57% 30.32 in 10.0 mi Calm Calm - N/A   Clear
9:55 AM 42.8 °F - 26.6 °F 53% 30.32 in 10.0 mi Calm Calm - N/A   Clear
10:06 AM 44.6 °F - 26.6 °F 49% 30.31 in 10.0 mi Calm Calm - N/A   Clear
10:35 AM 50.0 °F - 26.6 °F 40% 30.30 in 10.0 mi Calm Calm - N/A   Clear
10:53 AM 51.8 °F - 26.6 °F 38% 30.29 in 10.0 mi NNW 3.5 mph - N/A   Clear
11:12 AM 53.6 °F - 26.6 °F 35% 30.28 in 10.0 mi NW 3.5 mph - N/A   Clear
11:32 AM 55.4 °F - 24.8 °F 31% 30.26 in 10.0 mi North 3.5 mph - N/A   Clear
11:54 AM 59.0 °F - 24.8 °F 27% 30.25 in 10.0 mi Calm Calm - N/A   Clear
12:09 PM 60.8 °F - 24.8 °F 25% 30.24 in 10.0 mi Calm Calm - N/A   Clear
12:32 PM 64.4 °F - 24.8 °F 22% 30.22 in 10.0 mi SSE 3.5 mph - N/A   Clear
12:52 PM 66.2 °F - 23.0 °F 19% 30.21 in 10.0 mi Calm Calm - N/A   Clear
1:15 PM 69.8 °F - 23.0 °F 17% 30.19 in 10.0 mi West 4.6 mph - N/A   Clear
1:35 PM 69.8 °F - 21.2 °F 16% 30.17 in 10.0 mi West 3.5 mph - N/A   Clear
1:55 PM 69.8 °F - 19.4 °F 15% 30.17 in 10.0 mi South 3.5 mph - N/A   Clear
2:15 PM 71.6 °F - 19.4 °F 14% 30.16 in 10.0 mi ENE 4.6 mph - N/A   Clear
2:35 PM 71.6 °F - 19.4 °F 14% 30.14 in 10.0 mi Calm Calm - N/A   Clear
2:55 PM 71.6 °F - 14.0 °F 11% 30.14 in 10.0 mi North 3.5 mph - N/A   Clear
3:15 PM 73.4 °F - 14.0 °F 10% 30.12 in 10.0 mi Calm Calm - N/A   Clear
3:32 PM 73.4 °F - 14.0 °F 10% 30.12 in 10.0 mi Calm Calm - N/A   Clear
3:55 PM 73.4 °F - 12.2 °F 10% 30.12 in 10.0 mi SW 4.6 mph - N/A   Clear
4:06 PM 73.4 °F - 10.4 °F 9% 30.11 in 10.0 mi Calm Calm - N/A   Clear
4:26 PM 73.4 °F - 10.4 °F 9% 30.11 in 10.0 mi SSW 5.8 mph - N/A   Clear
4:51 PM 73.4 °F - 15.8 °F 11% 30.11 in 10.0 mi West 3.5 mph - N/A   Clear
5:13 PM 73.4 °F - 15.8 °F 11% 30.11 in 10.0 mi NW 10.4 mph 20.7 mph N/A   Clear
5:35 PM 71.6 °F - 12.2 °F 10% 30.11 in 10.0 mi NNW 9.2 mph - N/A   Clear
5:53 PM 69.8 °F - 10.4 °F 10% 30.11 in 10.0 mi NNW 10.4 mph 18.4 mph N/A   Clear
6:13 PM 69.8 °F - 12.2 °F 11% 30.11 in 10.0 mi NNW 11.5 mph 17.3 mph N/A   Clear
6:32 PM 66.2 °F - 14.0 °F 13% 30.11 in 10.0 mi NNW 11.5 mph - N/A   Clear
7:13 PM 60.8 °F - 14.0 °F 16% 30.12 in 10.0 mi NNW 10.4 mph - N/A   Clear
7:28 PM 60.8 °F - 14.0 °F 16% 30.12 in 10.0 mi WNW 6.9 mph - N/A   Clear
7:55 PM 57.2 °F - 17.6 °F 21% 30.13 in 10.0 mi SW 4.6 mph - N/A   Clear
8:15 PM 55.4 °F - 17.6 °F 23% 30.14 in 10.0 mi SW 4.6 mph - N/A   Clear
8:32 PM 55.4 °F - 17.6 °F 23% 30.14 in 10.0 mi SSW 4.6 mph - N/A   Clear
8:54 PM 53.6 °F - 19.4 °F 26% 30.14 in 10.0 mi South 3.5 mph - N/A   Clear
9:15 PM 51.8 °F - 19.4 °F 28% 30.15 in 10.0 mi Calm Calm - N/A   Clear
9:35 PM 46.4 °F 42.4 °F 19.4 °F 34% 30.15 in 10.0 mi SE 8.1 mph - N/A   Clear
9:49 PM 46.4 °F 42.9 °F 21.2 °F 37% 30.16 in 10.0 mi East 6.9 mph - N/A   Clear
10:09 PM 46.4 °F - 23.0 °F 40% 30.16 in 10.0 mi Calm Calm - N/A   Clear
10:32 PM 46.4 °F 45.2 °F 21.2 °F 37% 30.16 in 10.0 mi ESE 3.5 mph - N/A   Clear
10:54 PM 42.8 °F - 21.2 °F 42% 30.16 in 10.0 mi Calm Calm - N/A   Clear
11:15 PM 41.0 °F 39.0 °F 21.2 °F 45% 30.16 in 10.0 mi East 3.5 mph - N/A   Clear
11:35 PM 41.0 °F - 19.4 °F 42% 30.16 in 10.0 mi Calm Calm - N/A   Clear
11:52 PM 41.0 °F - 19.4 °F 42% 30.16 in 10.0 mi Calm Calm - N/A   Clear